sat.trackr.live / text

‹ back to catalog

QIANFAN-216

NORAD 69815 · 2026-153R

PAYLOAD ACTIVE UNKNOWN

§ Identity

Operator
Country
PRC
Launch date
2026-07-04
Launch site
TAISC
Launch vehicle
Mass (kg)
RCS (m²)

External: N2YO · Heavens-Above · Gunter

§ Orbital elements

Epoch: 2026-09-20T04:44:47.320224Z

Period
102.06 min
Inclination
88.9977°
Eccentricity
0.0006369
Mean motion
14.10942616 rev/d
Perigee alt
851.5 km
Apogee alt
860.8 km
Semi-major
7,234.3 km
B*
1.1670e-4
RAAN
351.4118°
Arg perigee
1.8563°
Mean anomaly
358.2644°
Rev number
1,105

§ Raw data

QIANFAN-2161 69815U 26153R   26263.19776991  .00000223  00000+0  11670-3 0  99982 69815  88.9977 351.4118 0006369   1.8563 358.2644 14.10942616 11052

JSON: /api/v1/satellites/69815 · /tle

For live sub-satellite position, see the globe view (requires WebGL).

§ Visibility from observer

Set your observer location to see the next 7 days of passes ≥ 10°. The values pass through the URL so the page stays shareable.

No JS? Fill the form by hand. The geolocation button needs JavaScript.